Overview Statistics Trail Chart Weather Telemetry Raw packets
 

This is the latest recevied weather packets stored in our database for station/object K7SKM. If no packets are shown the sender has not sent any weather packets the latest 10 day(s).

<< 104 105 106 107 108 109 110 >>
Time Temp. Humidity Pressure Rain* Wind** Luminosity Snow
1787891944 18.33° C 68% 1022.9 hPa 0 mm - 0 W/m² -
1787891639 18.33° C 68% 1022.9 hPa 0 mm - 0 W/m² -
1787891335 18.33° C 68% 1023 hPa 0 mm - 0 W/m² -
1787891023 17.78° C 69% 1022.9 hPa 0 mm - 0 W/m² -
1787890723 17.78° C 68% 1023 hPa 0 mm - 0 W/m² -
1787890417 17.78° C 68% 1022.8 hPa 0 mm - 0 W/m² -
1787890113 17.78° C 68% 1022.8 hPa 0 mm - 0 W/m² -
1787889813 17.78° C 67% 1022.8 hPa 0 mm - 0 W/m² -
1787889508 18.33° C 67% 1022.8 hPa 0 mm - 0 W/m² -
1787889203 18.33° C 66% 1022.8 hPa 0 mm - 0 W/m² -
1787888897 18.89° C 65% 1022.8 hPa 0 mm - 0 W/m² -
1787888593 18.33° C 65% 1022.6 hPa 0 mm - 0 W/m² -
1787888292 18.89° C 64% 1022.5 hPa 0 mm - 0 W/m² -
1787887988 18.89° C 64% 1022.6 hPa 0 mm - 0 W/m² -
1787887684 18.89° C 63% 1022.4 hPa 0 mm - 0 W/m² -
1787887379 19.44° C 62% 1022.4 hPa 0 mm - 0 W/m² -
1787887079 19.44° C 61% 1022.4 hPa 0 mm - 0 W/m² -
1787886774 19.44° C 61% 1022.3 hPa 0 mm - 0 W/m² -
1787886474 19.44° C 61% 1022.3 hPa 0 mm - 0 W/m² -
1787886169 19.44° C 60% 1022.3 hPa 0 mm - 0 W/m² -
1787885868 20° C 60% 1022.2 hPa 0 mm - 0 W/m² -
1787885567 20° C 60% 1022.2 hPa 0 mm - 1 W/m² -
1787885266 20° C 59% 1022.4 hPa 0 mm - 3 W/m² -
1787884961 20.56° C 59% 1022.3 hPa 0 mm - 5 W/m² -
1787884656 20.56° C 58% 1022.3 hPa 0 mm - 6 W/m² -

* Rain latest hour (hover to see other rain measurements)
** Current wind speed in m/s (hover to see current wind gust speed)